Location: Gollag?dem
(16.8053°N, 80.8024°E)
Time: 10:20:08
(UTC+00:00)

Cosmos 1328 Rocket - Pass Details

Date: 13 August 2020
Orbit: 602 x 626 km, 82.5° (Epoch: 18 September)

Event Time Altitude Azimuth Distance (km) Brightness Sun altitude
Rises 13:37:34 0° 355° (N) 2,897 7.3 -8.8°
Reaches altitude 10° 13:39:48 10° 355° (N) 1,992 6.5 -9.3°
Maximum altitude 13:44:13 88° 267° (W) 629 3.6 -10.3°
Drops below altitude 10° 13:48:39 10° 177° (S) 1,991 5.9 -11.3°
Sets 13:50:52 0° 177° (S) 2,895 6.8 -11.8°
